Rochester, NY

7:49 PM EST on November 20, 2019 (GMT -0500)
Greater Rochester International

Weather History for KROC - October, 2019

Change the Weather History Date:

Tuesday, October 22, 2019

  Actual Average Record
Temperature  
Mean Temperature 58 °F 48 °F  
Max Temperature 63 °F 57 °F 82 °F (1979)
Min Temperature 53 °F 40 °F 23 °F (1940)
Degree Days  
Heating Degree Days 7 17  
Month to date heating degree days 258 290  
Since 1 July heating degree days 322 471  
Cooling Degree Days 0 0  
Month to date cooling degree days 13 0  
Year to date cooling degree days 621 534  
Growing Degree Days 8 (Base 50)    
Moisture  
Dew Point 53 °F    
Average Humidity 80    
Maximum Humidity 100    
Minimum Humidity 56    
Precipitation  
Precipitation 0.51 in 0.08 in 1.07 in (1898)
Month to date precipitation 2.96 1.94  
Year to date precipitation 26.82 27.92  
Snow  
Snow 0.00 in 0.00 in T in (2010)
Month to date snowfall 0.0 0.0  
Since 1 July snowfall 0.0 0.0  
Since 1 September snowfall 0.0 0.0  
Snow Depth 0.00 in    
Sea Level Pressure  
Sea Level Pressure 29.79 in    
Wind  
Wind Speed 10 mph ()    
Max Wind Speed 21 mph    
Max Gust Speed 30 mph    
Visibility 7.8 miles    
Events Rain    
T = Trace of Precipitation, MM = Missing Value Source: Averaged Metar Reports

Daily Weather History Graph

Daily Weather History Graph

Search for Another Location

Airport or City:

Astronomy

Oct. 22, 2019 Rise Set
Actual Time 7:32 AM EDT 6:17 PM EDT
Civil Twilight 7:03 AM EDT 6:46 PM EDT
Nautical Twilight 6:30 AM EDT 7:19 PM EDT
Astronomical Twilight 5:57 AM EDT 7:52 PM EDT
Moon 12:26 AM EDT (10/22) 3:37 PM EDT (10/22)
Length of Visible Light 11h 42m
Length of Day
10h 44m
Last Quarter, 37% of the Moon is Illuminated
Oct 22
Last Quarter
Oct 27
New
Nov 4
First Quarter
Nov 12
Full
Nov 19
Last Quarter

Hourly Weather History & Observations

Time (EDT) Temp. Dew Point Humidity Pressure Visibility Wind Dir Wind Speed Gust Speed Precip Events Conditions
12:54 AM 63.0 °F 46.9 °F 56% 29.86 in 10.0 mi South 13.8 mph 23.0 mph N/A   Overcast
1:54 AM 63.0 °F 46.9 °F 56% 29.84 in 10.0 mi South 18.4 mph 28.8 mph N/A   Overcast
2:54 AM 62.1 °F 48.0 °F 60% 29.85 in 10.0 mi South 10.4 mph - N/A   Overcast
3:54 AM 62.1 °F 48.0 °F 60% 29.83 in 10.0 mi South 13.8 mph 21.9 mph N/A   Overcast
4:54 AM 62.1 °F 48.0 °F 60% 29.83 in 10.0 mi South 17.3 mph 25.3 mph N/A   Overcast
5:54 AM 61.0 °F 48.0 °F 62% 29.83 in 10.0 mi South 11.5 mph 19.6 mph N/A   Overcast
6:54 AM 62.1 °F 48.9 °F 62% 29.83 in 10.0 mi South 13.8 mph - 0.00 in   Overcast
7:54 AM 61.0 °F 51.1 °F 70% 29.81 in 10.0 mi South 12.7 mph - 0.00 in Rain Light Rain
8:54 AM 61.0 °F 52.0 °F 72% 29.81 in 10.0 mi South 10.4 mph - 0.00 in   Overcast
9:54 AM 62.1 °F 52.0 °F 70% 29.81 in 10.0 mi South 16.1 mph 25.3 mph 0.00 in   Overcast
10:20 AM 62.1 °F 52.0 °F 70% 29.79 in 10.0 mi SSW 15.0 mph 24.2 mph N/A   Overcast
10:54 AM 62.1 °F 52.0 °F 70% 29.81 in 10.0 mi SSW 16.1 mph 23.0 mph N/A   Overcast
11:54 AM 59.0 °F 57.0 °F 93% 29.82 in 3.0 mi NW 9.2 mph - 0.02 in Rain Light Rain
12:05 PM 59.0 °F 57.0 °F 93% 29.81 in 1.5 mi West 5.8 mph - 0.05 in Rain Heavy Rain
12:28 PM 59.0 °F 55.9 °F 90% 29.80 in 3.0 mi SSW 6.9 mph - 0.15 in Rain Rain
12:54 PM 59.0 °F 57.0 °F 93% 29.79 in 10.0 mi South 5.8 mph - 0.17 in Rain Light Rain
1:33 PM 59.0 °F 57.0 °F 93% 29.77 in 2.5 mi South 6.9 mph - 0.01 in Rain Light Rain
1:41 PM 59.0 °F 57.0 °F 93% 29.77 in 1.5 mi SSW 5.8 mph - 0.02 in Rain Light Rain
1:54 PM 59.0 °F 57.0 °F 93% 29.76 in 1.5 mi South 5.8 mph - 0.07 in Rain Rain
2:03 PM 59.0 °F 57.0 °F 93% 29.75 in 3.0 mi SSE 5.8 mph - 0.01 in Rain Light Rain
2:14 PM 59.0 °F 57.0 °F 93% 29.73 in 1.5 mi SSE 8.1 mph - 0.02 in Rain Rain
2:54 PM 57.9 °F 57.0 °F 97% 29.75 in 5.0 mi South 6.9 mph - 0.10 in Rain Light Rain
3:54 PM 59.0 °F 57.0 °F 93% 29.74 in 10.0 mi SSE 8.1 mph - 0.11 in Rain Light Rain
4:54 PM 59.0 °F 55.9 °F 90% 29.74 in 10.0 mi South 6.9 mph - 0.04 in   Overcast
5:54 PM 57.9 °F 54.0 °F 87% 29.72 in 10.0 mi SSE 6.9 mph - 0.00 in Rain Light Rain
6:54 PM 57.9 °F 53.1 °F 84% 29.73 in 10.0 mi South 8.1 mph - 0.00 in   Mostly Cloudy
7:54 PM 55.9 °F 51.1 °F 84% 29.76 in 10.0 mi SSW 8.1 mph - N/A   Scattered Clouds
8:54 PM 55.0 °F 50.0 °F 83% 29.79 in 10.0 mi WSW 12.7 mph - N/A   Mostly Cloudy
9:54 PM 53.1 °F 51.1 °F 93% 29.81 in 10.0 mi WSW 8.1 mph - 0.00 in   Overcast
10:54 PM 54.0 °F 51.1 °F 90% 29.81 in 10.0 mi SSW 4.6 mph - 0.00 in   Mostly Cloudy
11:54 PM 54.0 °F 50.0 °F 86% 29.81 in 10.0 mi Calm Calm - N/A   Overcast